Weather in Kirillov

Russia / Vologda Oblast     59°51′32″N   38°22′29″E
temp.,
°C
wind,
m/s
gust,
m/s
humid.,
%
clouds,
%
prec.,
mm/h
press.,
hPa
HPBL,
m
18 may, tue
tue1800:00+14ese3129144 0.1 1014292
03:00+14ese41388100 0.1 1013360
06:00+15ese4118970 0.1 1012340
09:00+21se59724 0.1 1012493
12:00+26sse510493 0.0 10111174
15:00+27sse511452 0.0 10112261
18:00+25sse51153100 0.0 1011939
21:00+20se4157343 0.0 1011523
19 may, wed
wed1900:00+18se414839 0.0 1011431
03:00+15ese311955 0.0 1011256
06:00+17se312852 0.0 1010389
09:00+23se511613 0.0 1010818
12:00+27se6144716 0.0 10092247
15:00+28sse614445 0.0 10093245
18:00+25sse5125618 0.0 10081800
21:00+19se4137879 1.1 1009444
20 may, thu
thu2000:00+18se4148787 0.4 1009499
03:00+17ese4118977 0.4 1008357
06:00+16se3994100 1.0 1009373
09:00+21ese467333 1.0 1008588
12:00+26se59503 0.0 10061339
15:00+27se612510 0.1 10052735
18:00+19sse61380100 1.6 1005925
21:00+17se412914 2.8 1005587
21 may, fri
fri2100:00+15se412945 0.0 1004510
03:00+13sse411938 0.1 1003524
06:00+13sse41091100 0.0 1003881
09:00+14s5875100 0.1 10041061
12:00+13s4880100 0.0 1005852
15:00+12w3881100 0.1 1007752
18:00+15w3769100 0.1 10081192
21:00+11ssw398111 0.2 1010187
22 may, sat
sat2200:00+9sw312773 0.0 1012291
03:00+7sw310864 0.0 1013256
06:00+9sw310781 0.0 1014321
09:00+13sw59504 0.0 10151469
12:00+16wsw574223 0.0 10152006
15:00+17sw464093 0.0 10152084
18:00+17ssw2549100 0.0 10151287
21:00+11sse39797 0.0 1016165